Location: ???????
(38.3360°N, 23.6977°E)
Time: 13:12:44
(UTC+00:00)

Resurs 1-3 - Pass Details

Date: 17 November 2025
Orbit: 613 x 615 km, 97.7° (Epoch: 06 December)

Event Time Altitude Azimuth Distance (km) Brightness Sun altitude
Rises 16:37:11 0° 154° (SSE) 2,869 6.8 -16.9°
Reaches altitude 10° 16:39:24 10° 149° (SSE) 1,968 5.9 -17.3°
Maximum altitude 16:43:32 50° 74° (ENE) 787 3.6 -18.1°
Drops below altitude 10° 16:47:42 10° 359° (N) 1,981 6.1 -18.9°
Sets 16:49:56 0° 354° (N) 2,889 7.0 -19.3°
